| time (UTC) | temp C | wind direction | speed KPH | gust KPH | rain 1hr cm | rain 24hr cm | rain mn cm | humidity % | barometer mb |
| 20260507070449 | 8 | 138 | 4.8 | 14.5 | 0.00 | 0.00 | 0.00 | 99 | |
| 20260507065424 | 8 | 89 | 11.3 | 12.9 | 0.00 | 0.00 | 0.00 | 99 | |
| 20260507064449 | 8 | 89 | 3.2 | 12.9 | 0.00 | 0.00 | 0.00 | 99 | |
| 20260507063452 | 8 | 90 | 0.0 | 8.0 | 0.00 | 0.00 | 0.00 | 99 | |
| 20260507062451 | 8 | 72 | 3.2 | 8.0 | 0.00 | 0.00 | 0.00 | 99 | |
| 20260507061415 | 8 | 108 | 6.4 | 8.0 | 0.00 | 0.00 | 0.00 | 99 | |
| 20260507060337 | 8 | 103 | 3.2 | 9.7 | 0.00 | 0.00 | 0.00 | 99 | |
| 20260507055402 | 8 | 37 | 3.2 | 8.0 | 0.00 | 0.00 | 0.00 | 99 | |
| 20260507054437 | 8 | 34 | 3.2 | 4.8 | 0.00 | 0.00 | 0.00 | 99 | |
| 20260507053451 | 8 | 51 | 0.0 | 8.0 | 0.00 | 0.00 | 0.00 | 99 | |
| 20260507052424 | 8 | 347 | 6.4 | 6.4 | 0.00 | 0.00 | 0.00 | 99 | |
| 20260507051427 | 8 | 42 | 4.8 | 6.4 | 0.00 | 0.00 | 0.00 | 99 | |
| 20260507050351 | 7 | 90 | 0.0 | 4.8 | 0.00 | 0.00 | 0.00 | 99 | |
| 20260507045424 | 7 | 323 | 3.2 | 6.4 | 0.00 | 0.00 | 0.00 | 99 | |
| 20260507044339 | 7 | 318 | 6.4 | 12.9 | 0.00 | 0.00 | 0.00 | 99 | |
| 20260507043326 | 7 | 307 | 11.3 | 11.3 | 0.00 | 0.00 | 0.00 | 99 | |
| 20260507042401 | 7 | 342 | 8.0 | 8.0 | 0.00 | 0.00 | 0.00 | 99 | |
| 20260507041314 | 7 | 336 | 4.8 | 9.7 | 0.00 | 0.00 | 0.00 | 99 | |
| 20260507040352 | 7 | 307 | 9.7 | 9.7 | 0.00 | 0.00 | 0.00 | 99 | |
| 20260507035401 | 7 | 318 | 8.0 | 8.0 | 0.00 | 0.00 | 0.00 | 99 | |
| 20260507034338 | 7 | 330 | 0.0 | 6.4 | 0.00 | 0.00 | 0.00 | 99 | |
| 20260507033326 | 7 | 270 | 4.8 | 6.4 | 0.00 | 0.00 | 0.00 | 99 | |
| 20260507032335 | 7 | 321 | 3.2 | 8.0 | 0.00 | 0.00 | 0.00 | 99 | |
| 20260507031312 | 7 | 318 | 6.4 | 6.4 | 0.00 | 0.00 | 0.00 | 99 | |
| 20260507030338 | 7 | 294 | 4.8 | 6.4 | 0.00 | 0.00 | 0.00 | 99 | |
| 20260507025306 | 7 | 307 | 3.2 | 8.0 | 0.00 | 0.00 | 0.00 | 99 | |
| 20260507024313 | 7 | 283 | 8.0 | 8.0 | 0.00 | 0.00 | 0.00 | 99 | |
| 20260507023302 | 7 | 30 | 0.0 | 8.0 | 0.00 | 0.00 | 0.00 | 99 | |
| 20260507022337 | 7 | 330 | 0.0 | 9.7 | 0.00 | 0.00 | 0.00 | 99 | |
| 20260507021414 | 8 | 336 | 9.7 | 9.7 | 0.00 | 0.00 | 0.00 | 99 | |
| 20260507020402 | 8 | 336 | 4.8 | 8.0 | 0.00 | 0.00 | 0.00 | 99 | |
| 20260507015401 | 8 | 336 | 0.0 | 9.7 | 0.00 | 0.00 | 0.00 | 99 | |
| 20260507014424 | 8 | 309 | 8.0 | 9.7 | 0.00 | 0.00 | 0.00 | 99 | |
| 20260507013415 | 8 | 309 | 6.4 | 6.4 | 0.00 | 0.00 | 0.00 | 99 | |
| 20260507012359 | 8 | 330 | 6.4 | 6.4 | 0.00 | 0.00 | 0.00 | 99 | |
| 20260507011425 | 8 | 66 | 0.0 | 0.0 | 0.00 | 0.00 | 0.00 | 99 | |
| 20260507010412 | 8 | 58 | 0.0 | 0.0 | 0.00 | 0.00 | 0.00 | 99 | |
| 20260507005336 | 8 | 58 | 0.0 | 0.0 | 0.00 | 0.00 | 0.00 | 99 | |
| 20260507004339 | 8 | 58 | 0.0 | 0.0 | 0.00 | 0.00 | 0.00 | 99 | |
| 20260507003327 | 8 | 58 | 0.0 | 6.4 | 0.00 | 0.00 | 0.00 | 99 | |
| 20260507002402 | 8 | 68 | 6.4 | 6.4 | 0.00 | 0.00 | 0.00 | 99 | |
| 20260507001312 | 8 | 307 | 0.0 | 3.2 | 0.00 | 0.00 | 0.00 | 99 | |
| 20260507000338 | 8 | 307 | 3.2 | 3.2 | 0.00 | 0.00 | 0.00 | 99 | |
| 20260506235335 | 8 | 307 | 0.0 | 6.4 | 0.00 | 0.00 | 0.00 | 99 | |
| 20260506234313 | 7 | 318 | 6.4 | 6.4 | 0.00 | 0.00 | 0.00 | 99 | |
| 20260506233237 | 8 | 264 | 4.8 | 4.8 | 0.00 | 0.00 | 0.00 | 99 | |
| 20260506232311 | 8 | 222 | 3.2 | 8.0 | 0.00 | 0.00 | 0.00 | 99 | |
| 20260506231352 | 8 | 228 | 8.0 | 8.0 | 0.00 | 0.00 | 0.00 | 99 | |
| 20260506230337 | 8 | 193 | 3.2 | 4.8 | 0.00 | 0.00 | 0.00 | 99 | |
| 20260506225314 | 8 | 193 | 0.0 | 3.2 | 0.00 | 0.00 | 0.00 | 99 | |
| 20260506224300 | 8 | 150 | 3.2 | 8.0 | 0.00 | 0.00 | 0.00 | 99 | |
| 20260506223225 | 8 | 156 | 8.0 | 11.3 | 0.00 | 0.00 | 0.00 | 99 | |
| 20260506222205 | 8 | 257 | 6.4 | 11.3 | 0.00 | 0.00 | 0.00 | 99 | |
| 20260506221152 | 8 | 143 | 4.8 | 8.0 | 0.00 | 0.00 | 0.00 | 99 | |
| 20260506220136 | 8 | 150 | 3.2 | 11.3 | 0.00 | 0.00 | 0.00 | 99 | |
| 20260506215114 | 8 | 193 | 9.7 | 11.3 | 0.00 | 0.00 | 0.00 | 99 | |
| 20260506214101 | 8 | 204 | 8.0 | 14.5 | 0.00 | 0.00 | 0.00 | 99 | |
| 20260506213049 | 8 | 150 | 12.9 | 14.5 | 0.00 | 0.00 | 0.00 | 99 | |
| 20260506212048 | 8 | 210 | 11.3 | 12.9 | 0.00 | 0.00 | 0.00 | 99 | |
| 20260506211000 | 8 | 180 | 11.3 | 17.7 | 0.00 | 0.00 | 0.00 | 99 | |
| 20260506210024 | 8 | 210 | 8.0 | 17.7 | 0.00 | 0.00 | 0.00 | 99 | |
| 20260506205050 | 8 | 150 | 9.7 | 14.5 | 0.00 | 0.00 | 0.00 | 99 | |
| 20260506204037 | 8 | 167 | 11.3 | 19.3 | 0.00 | 0.00 | 0.00 | 99 | |
| 20260506203049 | 8 | 217 | 12.9 | 19.3 | 0.00 | 0.00 | 0.00 | 99 | |
| 20260506202026 | 8 | 210 | 9.7 | 17.7 | 0.00 | 0.00 | 0.00 | 99 | |
| 20260506201040 | 8 | 193 | 14.5 | 19.3 | 0.00 | 0.00 | 0.00 | 99 | |
| 20260506200047 | 8 | 186 | 11.3 | 20.9 | 0.00 | 0.00 | 0.00 | 99 | |
| 20260506195111 | 8 | 167 | 19.3 | 20.9 | 0.00 | 0.00 | 0.00 | 99 | |
| 20260506194138 | 8 | 210 | 17.7 | 20.9 | 0.00 | 0.00 | 0.00 | 99 | |
| 20260506193200 | 8 | 180 | 12.9 | 20.9 | 0.00 | 0.00 | 0.00 | 99 | |
| 20260506192110 | 8 | 193 | 11.3 | 20.9 | 0.00 | 0.00 | 0.00 | 99 | |
| 20260506191114 | 7 | 222 | 14.5 | 14.5 | 0.00 | 0.00 | 0.00 | 99 | |
| 20260506185048 | 7 | 198 | 12.9 | 22.5 | 0.00 | 0.00 | 0.00 | 99 | |
| 20260506184125 | 8 | 204 | 20.9 | 20.9 | 0.00 | 0.00 | 0.00 | 99 | |
| 20260506183200 | 7 | 162 | 12.9 | 19.3 | 0.00 | 0.00 | 0.00 | 99 | |
| 20260506182225 | 7 | 204 | 17.7 | 19.3 | 0.00 | 0.00 | 0.00 | 99 | |
| 20260506181247 | 8 | 210 | 9.7 | 17.7 | 0.00 | 0.00 | 0.00 | 99 | |
| 20260506180311 | 8 | 193 | 14.5 | 14.5 | 0.00 | 0.00 | 0.00 | 99 | |
| 20260506175347 | 8 | 162 | 11.3 | 14.5 | 0.00 | 0.00 | 0.00 | 99 | |
| 20260506174422 | 8 | 167 | 14.5 | 14.5 | 0.00 | 0.00 | 0.00 | 99 | |
| 20260506173423 | 8 | 193 | 14.5 | 19.3 | 0.00 | 0.00 | 0.00 | 99 | |
| 20260506172413 | 8 | 162 | 14.5 | 19.3 | 0.00 | 0.00 | 0.00 | 99 | |
| 20260506171249 | 8 | 204 | 8.0 | 14.5 | 0.00 | 0.00 | 0.00 | 99 | |
| 20260506170326 | 8 | 193 | 8.0 | 20.9 | 0.00 | 0.00 | 0.00 | 99 | |
| 20260506165136 | 8 | 186 | 11.3 | 20.9 | 0.00 | 0.00 | 0.00 | 99 | |
| 20260506164158 | 8 | 156 | 19.3 | 20.9 | 0.00 | 0.00 | 0.00 | 99 | |
| 20260506163212 | 8 | 204 | 8.0 | 17.7 | 0.00 | 0.00 | 0.00 | 99 | |
| 20260506162223 | 8 | 167 | 14.5 | 17.7 | 0.00 | 0.00 | 0.00 | 99 | |
| 20260506161158 | 8 | 174 | 11.3 | 11.3 | 0.00 | 0.00 | 0.00 | 99 | |
| 20260506160225 | 8 | 222 | 6.4 | 22.5 | 0.00 | 0.00 | 0.00 | 99 | |
| 20260506155222 | 8 | 162 | 14.5 | 25.7 | 0.00 | 0.00 | 0.00 | 99 | |
| 20260506154214 | 8 | 174 | 24.1 | 25.7 | 0.00 | 0.00 | 0.00 | 99 | |
| 20260506153147 | 8 | 198 | 17.7 | 27.4 | 0.00 | 0.00 | 0.00 | 99 | |
| 20260506152110 | 8 | 156 | 19.3 | 27.4 | 0.00 | 0.00 | 0.00 | 99 | |
| 20260506151148 | 9 | 127 | 24.1 | 27.4 | 0.00 | 0.00 | 0.00 | 99 | |
| 20260506150112 | 8 | 162 | 8.0 | 22.5 | 0.00 | 0.00 | 0.00 | 99 | |
| 20260506145113 | 8 | 180 | 20.9 | 22.5 | 0.00 | 0.00 | 0.00 | 99 | |
| 20260506144035 | 8 | 162 | 17.7 | 20.9 | 0.00 | 0.00 | 0.00 | 99 | |
| 20260506143000 | 8 | 150 | 9.7 | 20.9 | 0.00 | 0.00 | 0.00 | 99 | |
| 20260506142037 | 8 | 156 | 14.5 | 20.9 | 0.00 | 0.00 | 0.00 | 99 | |
| 20260506140100 | 8 | 162 | 12.9 | 24.1 | 0.00 | 0.00 | 0.00 | 99 | |
| 20260506134901 | 8 | 132 | 9.7 | 24.1 | 0.00 | 0.00 | 0.00 | 99 | |
| 20260506133550 | 8 | 228 | 11.3 | 24.1 | 0.00 | 0.00 | 0.00 | 99 | |
| 20260506131934 | 8 | 156 | 20.9 | 24.1 | 0.00 | 0.00 | 0.00 | 99 | |
| 20260506130925 | 8 | 210 | 14.5 | 24.1 | 0.00 | 0.00 | 0.00 | 99 | |
| 20260506130001 | 8 | 132 | 20.9 | 24.1 | 0.00 | 0.00 | 0.00 | 99 | |
| 20260506124913 | 8 | 217 | 11.3 | 25.7 | 0.00 | 0.00 | 0.00 | 99 | |
| 20260506123949 | 8 | 156 | 17.7 | 24.1 | 0.00 | 0.00 | 0.00 | 99 | |
| 20260506123000 | 8 | 143 | 9.7 | 24.1 | 0.00 | 0.00 | 0.00 | 99 | |
| 20260506122024 | 8 | 167 | 11.3 | 25.7 | 0.00 | 0.00 | 0.00 | 99 | |
| 20260506120949 | 8 | 193 | 8.0 | 25.7 | 0.00 | 0.00 | 0.00 | 99 | |
| 20260506115848 | 8 | 198 | 19.3 | 25.7 | 0.00 | 0.00 | 0.00 | 99 | |
| 20260506114748 | 8 | 167 | 17.7 | 30.6 | 0.00 | 0.00 | 0.00 | 99 | |
| 20260506113800 | 8 | 193 | 20.9 | 35.4 | 0.00 | 0.00 | 0.00 | 99 | |
| 20260506112836 | 8 | 193 | 8.0 | 35.4 | 0.00 | 0.00 | 0.00 | 99 | |
| 20260506111824 | 8 | 186 | 14.5 | 27.4 | 0.00 | 0.00 | 0.00 | 99 | |
| 20260506105758 | 8 | 198 | 27.4 | 32.2 | 0.00 | 0.00 | 0.00 | 99 | |
| 20260506104724 | 7 | 217 | 17.7 | 25.7 | 0.00 | 0.00 | 0.00 | 99 | |
| 20260506103712 | 8 | 180 | 11.3 | 25.7 | 0.00 | 0.00 | 0.00 | 99 | |
| 20260506102711 | 8 | 204 | 12.9 | 22.5 | 0.00 | 0.00 | 0.00 | 99 | |
| 20260506101637 | 8 | 204 | 14.5 | 14.5 | 0.00 | 0.00 | 0.00 | 99 | |
| 20260506100559 | 8 | 156 | 12.9 | 17.7 | 0.00 | 0.00 | 0.00 | 99 | |
| 20260506095559 | 8 | 162 | 6.4 | 25.7 | 0.00 | 0.00 | 0.00 | 99 | |
| 20260506094535 | 8 | 167 | 19.3 | 33.8 | 0.00 | 0.00 | 0.00 | 99 | |
| 20260506093547 | 8 | 120 | 24.1 | 33.8 | 0.00 | 0.00 | 0.00 | 99 | |
| 20260506092510 | 8 | 162 | 12.9 | 32.2 | 0.00 | 0.00 | 0.00 | 99 | |
| 20260506091511 | 8 | 108 | 20.9 | 22.5 | 0.00 | 0.00 | 0.00 | 99 | |
| 20260506090548 | 8 | 127 | 12.9 | 14.5 | 0.00 | 0.00 | 0.00 | 99 | |
| 20260506085534 | 8 | 127 | 9.7 | 17.7 | 0.00 | 0.00 | 0.00 | 99 | |
| 20260506084533 | 8 | 156 | 12.9 | 14.5 | 0.00 | 0.00 | 0.00 | 99 | |
| 20260506083511 | 8 | 108 | 9.7 | 14.5 | 0.00 | 0.00 | 0.00 | 99 | |
| 20260506082533 | 8 | 114 | 9.7 | 11.3 | 0.00 | 0.00 | 0.00 | 99 | |
| 20260506081534 | 8 | 127 | 11.3 | 14.5 | 0.00 | 0.00 | 0.00 | 99 | |
| 20260506080533 | 8 | 127 | 14.5 | 14.5 | 0.00 | 0.00 | 0.00 | 99 | |
| 20260506073508 | 8 | 162 | 8.0 | 9.7 | 0.00 | 0.00 | 0.00 | 99 | |
| 20260506072544 | 8 | 6 | 0.0 | 8.0 | 0.00 | 0.00 | 0.00 | 99 | |
| 20260506071620 | 7 | 62 | 6.4 | 14.5 | 0.00 | 0.00 | 0.00 | 99 |